This is the latest recevied weather packets stored in our database for station/object VK4RM-13. If no packets are shown the sender has not sent any weather packets the latest 10 day(s).
| Time | Temp. | Humidity | Pressure | Rain* | Wind** | Luminosity | Snow |
|---|---|---|---|---|---|---|---|
| 1778221590 | 25° C | 43% | 996.1 hPa | 0 mm | - | - | - |
| 1778220990 | 25.56° C | 41% | 996.1 hPa | 0 mm | - | - | - |
| 1778220390 | 26.11° C | 40% | 995.9 hPa | 0 mm | - | - | - |
| 1778219790 | 26.11° C | 37% | 995.8 hPa | 0 mm | - | - | - |
| 1778219190 | 26.11° C | 39% | 995.8 hPa | 0 mm | - | - | - |
| 1778218590 | 25.56° C | 39% | 995.8 hPa | 0 mm | - | - | - |
| 1778217990 | 25.56° C | 42% | 995.8 hPa | 0 mm | - | - | - |
| 1778217390 | 26.11° C | 40% | 995.7 hPa | 0 mm | - | - | - |
| 1778216791 | 26.11° C | 40% | 995.7 hPa | 0 mm | - | - | - |
| 1778216190 | 26.11° C | 40% | 995.6 hPa | 0 mm | - | - | - |
| 1778215590 | 26.11° C | 41% | 995.6 hPa | 0 mm | - | - | - |
| 1778214991 | 25.56° C | 43% | 995.6 hPa | 0 mm | - | - | - |
| 1778214391 | 26.11° C | 45% | 995.7 hPa | 0 mm | - | - | - |
| 1778213791 | 26.11° C | 42% | 995.9 hPa | 0 mm | - | - | - |
| 1778213191 | 27.22° C | 42% | 996 hPa | 0 mm | - | - | - |
| 1778212591 | 26.67° C | 41% | 996.1 hPa | 0 mm | - | - | - |
| 1778211991 | 27.22° C | 41% | 996.2 hPa | 0 mm | - | - | - |
| 1778211391 | 26.67° C | 44% | 996.3 hPa | 0 mm | - | - | - |
| 1778210791 | 26.11° C | 45% | 996.4 hPa | 0 mm | - | - | - |
| 1778210191 | 26.11° C | 43% | 996.5 hPa | 0 mm | - | - | - |
| 1778209591 | 26.11° C | 45% | 996.7 hPa | 0 mm | - | - | - |
| 1778208991 | 26.11° C | 46% | 996.8 hPa | 0 mm | - | - | - |
| 1778208391 | 25.56° C | 43% | 997.1 hPa | 0 mm | - | - | - |
| 1778207791 | 26.11° C | 43% | 997.2 hPa | 0 mm | - | - | - |
| 1778207191 | 25.56° C | 44% | 997.4 hPa | 0 mm | - | - | - |
* Rain latest hour (hover to see other rain measurements)
** Current wind speed in m/s (hover to see current wind gust speed)